STARLINK-32649 (62305 NORAD) Tracking and Keplerian Element Data

This shows tracking and keplerian element data for the satellite.

Feedback or suggestion? Click here.




ElementValue
Catalog62305
NameSTARLINK-32649
Epoch Orbit828
Epoch Day35.03126086
Epoch Year2025
RAAN250.1908
Inclination53.1549
Eccentricity9.91E-05
Argument of Perigee98.6543
Mean Anonmoly261.4574
Mean Motion15.3960889
Decay Rate-1.998E-05
L11 62305U 24239E 25035.03126086 -.00001998 00000+0 -39998-4 0 9997
L22 62305 53.1549 250.1908 0000991 98.6543 261.4574 15.39608890 8280



Live tracking and technical data element details for STARLINK-32649 (NORAD 62305). STARLINK-32649 can be tracked NOW for your location showing map with azimuth and elevation plus other details from your city location.







IsCatalogInMostPopularTable: catalog: 62305, numindb: 15
Update: records affected: 1



GetName: 62305 STARLINK-32649

Hit Count: updated at: Sat, 24 May 2025 17:00:36 GMT